This demonstration page uses our WeatherBlox Daily Observations layout. Learn more.

Left ArrowRight Arrow

Hourly Observations for December 19, 2016

Temp ( °F °C ) Dew Point ( °F °C ) Humidity (%) Winds ( mph kmh ) Pressure ( in mb ) Visibility ( mi km ) Precip ( " mm )
12:51 am 00:51 Clear 41 5 26 -3.3 55 55 SE 12 19 30.26 1025 10 16 N/A
1:51 am 01:51 Clear 42 5.6 24 -4.4 49 49 ESE 12 19 30.25 1024 10 16 N/A
2:51 am 02:51 Clear 41 5 24 -4.4 51 51 SE 13 20 30.27 1025 10 16 N/A
3:51 am 03:51 Clear 38 3.3 24 -4.4 57 57 E 7 11 30.28 1025 10 16 N/A
4:51 am 04:51 Clear 38 3.3 24 -4.4 57 57 ESE 10 17 30.29 1026 10 16 N/A
5:51 am 05:51 Clear 38 3.3 23 -5 55 55 ESE 9 15 30.32 1027 10 16 N/A
6:51 am 06:51 Clear 39 3.9 23 -5 53 53 E 10 17 30.35 1028 10 16 N/A
7:51 am 07:51 Sunny 36 2.2 24 -4.4 62 62 E 9 15 30.39 1029 10 16 N/A
8:51 am 08:51 Sunny 44 6.7 25 -3.9 47 47 ESE 10 17 30.40 1029 10 16 N/A
9:51 am 09:51 Sunny 48 8.9 21 -6.1 34 34 ESE 9 15 30.41 1030 10 16 N/A
10:51 am 10:51 Sunny 50 10 20 -6.7 30 30 SE 9 15 30.39 1029 10 16 N/A
11:51 am 11:51 Sunny 54 12.2 22 -5.6 29 29 S 12 19 30.35 1028 10 16 N/A
12:51 pm 12:51 Sunny 58 14.4 20 -6.7 23 23 ESE 13 20 30.31 1026 10 16 N/A
1:51 pm 13:51 Sunny 59 15 20 -6.7 22 22 S 8 13 30.28 1025 10 16 N/A
2:51 pm 14:51 Sunny 61 16.1 20 -6.7 20 20 SSE 13 20 30.27 1025 10 16 N/A
3:51 pm 15:51 Sunny 61 16.1 21 -6.1 21 21 ESE 13 20 30.26 1025 10 16 N/A
4:51 pm 16:51 Sunny 60 15.6 21 -6.1 22 22 ESE 8 13 30.26 1025 10 16 N/A
5:51 pm 17:51 Clear 53 11.7 22 -5.6 30 30 SE 6 9 30.28 1026 10 16 N/A
6:51 pm 18:51 Clear 52 11.1 22 -5.6 31 31 SE 8 13 30.30 1026 10 16 N/A
7:51 pm 19:51 Clear 48 8.9 24 -4.4 39 39 SE 8 13 30.34 1027 10 16 N/A
9:51 pm 21:51 Clear 48 8.9 22 -5.6 36 36 SSE 10 17 30.34 1028 10 16 N/A
10:51 pm 22:51 Clear 47 8.3 21 -6.1 36 36 SE 9 15 30.35 1028 10 16 0.01 0.25
11:51 pm 23:51 Clear 45 7.2 22 -5.6 40 40 E 8 13 30.36 1028 10 16 N/A

Powered by AerisWeather